sat.trackr.live / text

‹ back to catalog

STARLINK-1973

NORAD 47628 · 2021-012J

PAYLOAD ACTIVE UNKNOWN

§ Identity

Operator
Country
US
Launch date
2021-02-16
Launch site
AFETR
Launch vehicle
Mass (kg)
RCS (m²)

Purposes: comms

External: N2YO · Heavens-Above · Gunter

§ Orbital elements

Epoch: 2026-05-25T04:09:57.864960Z

Period
94.01 min
Inclination
53.1603°
Eccentricity
0.0001374
Mean motion
15.31712665 rev/d
Perigee alt
469.8 km
Apogee alt
471.6 km
Semi-major
6,848.8 km
B*
3.3389e-4
RAAN
69.2664°
Arg perigee
87.4654°
Mean anomaly
272.6504°
Rev number
29,180

§ Raw data

STARLINK-19731 47628U 21012J   26145.17358640  .00010014  00000+0  33389-3 0  99992 47628  53.1603  69.2664 0001374  87.4654 272.6504 15.31712665291802

JSON: /api/v1/satellites/47628 · /tle

For live sub-satellite position, see the globe view (requires WebGL).

§ Visibility from observer

Set your observer location to see the next 7 days of passes ≥ 10°. The values pass through the URL so the page stays shareable.

No JS? Fill the form by hand. The geolocation button needs JavaScript.